カタログに戻る

STARLINK-37564

運用中通信SSO
NORAD 68902·PAYLOAD·🇺🇸 United States

打ち上げ Apr 30, 2026 から Vandenberg Space Force Base

Loading…

次のパス (今後24時間)

TLE

最新Source: CelesTrak SupGP

元期: Sep 15, 2026, 03:41 UTC

1 68902C 26097H   26258.15395833 -.00048505  00000+0 -15042-2 0  2584
2 68902  97.2855  92.3948 0001673  79.0975 297.1252 15.33495969    15

AllMySatでSTARLINK-37564をリアルタイム追跡

Download on the App Store